VE3ZEB-1 Weather Reports


time (UTC)temp
F
wind
direction
speed
knots
gust
knots
rain 1hr
in
rain 24hr
in
rain mn
in
humidity
%
barometer
mb
20260505125028 52 334 2.6 4.3 0.00 0.01 0.00 76 679.5
20260505124028 52 327 3.5 4.3 0.00 0.01 0.00 76 679.5
20260505123028 51 325 2.6 4.3 0.00 0.01 0.00 76 679.5
20260505122044 50 322 3.5 5.2 0.00 0.01 0.00 76 679.5
20260505121049 50 343 3.5 5.2 0.00 0.01 0.00 76 679.5
20260505120029 51 329 4.3 7.0 0.00 0.01 0.00 76 679.5
20260505115029 52 323 3.5 6.1 0.00 0.01 0.00 76 679.5
20260505114044 53 330 1.7 3.5 0.00 0.01 0.00 76 679.5
20260505113029 54 318 2.6 6.1 0.00 0.01 0.00 76 679.5
20260505112050 55 328 3.5 5.2 0.00 0.01 0.00 76 679.6
20260505111029 56 318 3.5 7.0 0.00 0.01 0.00 80 679.6
20260505102030 57 246 2.6 7.0 0.00 0.01 0.00 83 679.6
20260505101051 57 259 1.7 4.3 0.00 0.01 0.00 82 679.6
20260505100030 57 250 1.7 2.6 0.00 0.01 0.00 76 679.6
20260505095031 57 267 1.7 5.2 0.00 0.01 0.00 76 679.6
20260505094031 57 267 1.7 4.3 0.00 0.01 0.00 76 679.6
20260505093031 58 243 1.7 5.2 0.00 0.01 0.00 76 679.6
20260505092052 58 253 1.7 3.5 0.00 0.01 0.00 76 679.6
20260505091032 58 252 1.7 3.5 0.00 0.01 0.00 76 679.6
20260505090031 58 264 1.7 4.3 0.00 0.01 0.00 76 679.7
20260505085032 59 268 1.7 4.3 0.00 0.01 0.00 76 679.6
20260505084052 59 258 0.9 3.5 0.00 0.01 0.00 76 679.7
20260505083032 59 231 2.6 5.2 0.00 0.01 0.00 76 679.7
20260505082047 59 231 1.7 4.3 0.00 0.01 0.00 76 679.7
20260505081032 59 254 2.6 4.3 0.00 0.01 0.00 76 679.7
20260505080017 59 248 2.6 5.2 0.00 0.01 0.00 74 679.7
20260505075018 59 279 0.9 4.3 0.00 0.01 0.00 74 679.7
20260505074018 60 232 2.6 5.2 0.00 0.01 0.00 74 679.7
20260505073018 60 233 3.5 6.1 0.00 0.01 0.00 74 679.7
20260505072018 60 233 2.6 4.3 0.00 0.01 0.00 74 679.7
20260505071018 60 235 2.6 6.1 0.00 0.01 0.00 74 679.7
20260505070018 60 232 4.3 6.1 0.00 0.01 0.00 74 679.7
20260505065018 60 239 2.6 5.2 0.00 0.01 0.00 76 679.7
20260505064053 60 245 1.7 7.0 0.00 0.01 0.00 76 679.7
20260505063054 60 260 2.6 7.0 0.00 0.01 0.00 76 679.7
20260505062019 59 233 2.6 4.3 0.00 0.01 0.00 76 679.7
20260505061039 59 231 4.3 7.8 0.00 0.01 0.00 76 679.7
20260505060034 60 235 3.5 7.8 0.00 0.01 0.00 76 679.7
20260505055019 59 226 6.1 8.7 0.00 0.01 0.00 76 679.7
20260505054102 59 222 5.2 7.8 0.00 0.01 0.00 76 679.7
20260505053034 59 227 6.1 8.7 0.00 0.01 0.00 76 679.7
20260505052019 60 223 4.3 7.0 0.00 0.01 0.00 76 679.7
20260505051020 60 228 5.2 8.7 0.00 0.01 0.00 75 679.7
20260505041020 60 219 4.3 7.8 0.00 0.01 0.00 76 679.7
20260505040021 60 221 4.3 7.0 0.00 0.01 0.00 74 679.7
20260505035101 60 228 4.3 7.0 0.00 0.01 0.01 74 679.7
20260505034021 60 228 3.5 7.8 0.00 0.01 0.01 73 679.7
20260505033021 60 232 3.5 6.1 0.00 0.01 0.01 73 679.7
20260505032021 60 225 5.2 9.6 0.00 0.01 0.01 72 679.7
20260505031021 61 228 7.0 12.2 0.00 0.01 0.01 73 679.8
20260505030021 61 212 5.2 8.7 0.00 0.01 0.01 72 679.8
20260505025021 61 234 4.3 7.0 0.01 0.01 0.01 73 679.8
20260505024022 61 222 4.3 7.8 0.01 0.01 0.01 74 679.8
20260505023042 61 226 4.3 7.8 0.01 0.01 0.01 76 679.8
20260505022022 61 242 3.5 6.1 0.01 0.01 0.01 76 679.8
20260505021022 62 241 5.2 10.4 0.01 0.01 0.01 74 679.8
20260505020022 62 242 3.5 6.1 0.01 0.01 0.01 73 679.8
20260505015023 62 219 6.1 8.7 0.00 0.00 0.00 69 679.8
20260505014023 62 219 5.2 8.7 0.00 0.00 0.00 69 679.8
20260505013023 62 204 6.1 8.7 0.00 0.00 0.00 68 679.8
20260505012043 63 205 4.3 6.1 0.00 0.00 0.00 67 679.8
20260505011023 63 191 6.1 9.6 0.00 0.00 0.00 66 679.8
20260505010023 64 195 5.2 7.8 0.00 0.00 0.00 64 679.9
20260505005023 65 206 5.2 8.7 0.00 0.00 0.00 61 679.9
20260505004043 66 215 4.3 7.8 0.00 0.00 0.00 61 679.9
20260505003024 66 205 5.2 7.0 0.00 0.00 0.00 60 679.9
20260505002024 67 203 6.1 8.7 0.00 0.00 0.00 59 679.9
20260505001024 67 206 6.1 7.8 0.00 0.00 0.00 57 679.9
20260505000024 68 221 4.3 7.8 0.00 0.00 0.00 56 679.9
20260504235044 68 220 4.3 7.0 0.00 0.00 0.00 55 679.9
20260504234024 69 221 5.2 7.8 0.00 0.00 0.00 53 680.0
20260504233024 69 224 5.2 7.8 0.00 0.00 0.00 52 680.0
20260504232024 70 229 6.1 10.4 0.00 0.00 0.00 51 680.0
20260504231040 70 226 5.2 8.7 0.00 0.00 0.00 50 680.0
20260504230039 70 235 4.3 7.8 0.00 0.00 0.00 49 680.0
20260504225025 71 221 5.2 7.8 0.00 0.00 0.00 48 680.0
20260504224025 71 237 5.2 9.6 0.00 0.00 0.00 48 680.0
20260504223025 71 223 6.1 8.7 0.00 0.00 0.00 47 680.0
20260504222106 71 236 7.8 11.3 0.00 0.00 0.00 45 680.0
20260504221025 71 233 6.1 10.4 0.00 0.00 0.00 45 680.0
20260504220026 71 229 7.0 10.4 0.00 0.00 0.00 44 680.0
20260504215106 71 229 6.1 10.4 0.00 0.00 0.00 43 680.0
20260504214025 72 226 8.7 13.9 0.00 0.00 0.00 42 680.0
20260504213026 72 237 6.1 7.8 0.00 0.00 0.00 42 680.0
20260504212026 72 227 8.7 15.6 0.00 0.00 0.00 42 680.0
20260504211047 73 229 6.1 12.2 0.00 0.00 0.00 43 680.0
20260504210027 74 222 6.1 11.3 0.00 0.00 0.00 43 680.1
20260504205047 74 238 6.1 12.2 0.00 0.00 0.00 42 680.1
20260504204027 74 230 7.0 11.3 0.00 0.00 0.00 42 680.1
20260504203027 74 238 5.2 9.6 0.00 0.00 0.00 45 680.1
20260504202027 73 233 5.2 10.4 0.00 0.00 0.00 45 680.0
20260504201047 73 227 7.8 12.2 0.00 0.00 0.00 46 680.0
20260504200027 73 222 7.8 14.8 0.00 0.00 0.00 46 680.1
20260504195027 73 209 7.0 11.3 0.00 0.00 0.00 47 680.0
20260504194027 73 214 7.0 9.6 0.00 0.00 0.00 47 680.0
20260504193048 73 223 7.0 9.6 0.00 0.00 0.00 46 680.0
20260504192028 73 221 7.0 9.6 0.00 0.00 0.00 46 680.0
20260504191028 73 220 6.1 9.6 0.00 0.00 0.00 46 680.0
20260504190028 73 203 7.0 10.4 0.00 0.00 0.00 47 680.0
20260504185028 73 219 4.3 6.1 0.00 0.00 0.00 47 680.0
20260504184028 73 230 6.1 8.7 0.00 0.00 0.00 47 680.0
20260504183017 73 221 4.3 8.7 0.00 0.00 0.00 47 680.0
20260504182017 73 212 7.0 8.7 0.00 0.00 0.00 47 680.1
20260504181018 73 212 7.8 13.9 0.00 0.00 0.00 47 680.1
20260504180018 74 229 6.1 8.7 0.00 0.00 0.00 46 680.1
20260504175018 75 216 7.0 12.2 0.00 0.00 0.00 44 680.1
20260504174119 75 225 6.1 8.7 0.00 0.00 0.00 43 680.1
20260504173018 75 218 6.1 9.6 0.00 0.00 0.00 42 680.1
20260504172038 76 231 7.8 11.3 0.00 0.00 0.00 42 680.1
20260504171019 75 241 4.3 7.8 0.00 0.00 0.00 42 680.1
20260504151040 70 222 6.1 8.7 0.00 0.00 0.00 54 679.9
20260504141022 62 230 4.3 7.0 0.00 0.00 0.00 64 679.7